Weather History for Crosby, ND

Change the Weather History Date:

Sunday, January 20, 2013

  Actual Average (KISN) Record (KISN)
Temperature  
Mean Temperature -6 °F 11 °F  
Max Temperature 3 °F 22 °F 48 °F (1944)
Min Temperature -16 °F 0 °F -38 °F (1954)
Degree Days  
Heating Degree Days 72 54  
Month to date heating degree days 1090  
Since 1 July heating degree days 4837  
Cooling Degree Days 0 0  
Month to date cooling degree days 0  
Year to date cooling degree days 0  
Moisture  
Dew Point -14 °F    
Average Humidity 73    
Maximum Humidity 92    
Minimum Humidity 59    
Precipitation  
Precipitation 0.14 in 0.02 in 0.33 in (1950)
Month to date precipitation 0.42  
Year to date precipitation 0.42  
Sea Level Pressure  
Sea Level Pressure 30.42 in    
Wind  
Wind Speed 15 mph (NW)    
Max Wind Speed 30 mph    
Max Gust Speed 37 mph    
Visibility 7 miles    
Events Rain , Snow    
T = Trace of Precipitation, MM = Missing Value Source: NWS Daily Summary

Daily Weather History Graph

Daily Weather History Graph

Search for Another Location

Airport:

Trip Planner

Search our weather history database for the weather conditions in past years. The results will help you decide how hot, cold, wet, or windy it might be!

Date:

Astronomy

Jan. 20, 2013 Rise Set
Actual Time 8:37 AM CST 5:32 PM CST
Civil Twilight 8:01 AM CST 6:07 PM CST
Nautical Twilight 7:22 AM CST 6:46 PM CST
Astronomical Twilight 6:45 AM CST 7:23 PM CST
Moon 12:36 PM CST (1/20) 3:08 AM CST (1/20)
Length of Visible Light 10h 05m
Length of Day
8h 54m
Waxing Gibbous, 66% of the Moon is Illuminated
Jan 20
Waxing Gibbous
Jan 26
Full
Feb 3
Last Quarter
Feb 10
New
Feb 17
First Quarter

Hourly Weather History & Observations

Time (CST) Temp. Windchill Dew Point Humidity Pressure Visibility Wind Dir Wind Speed Gust Speed Precip Events Conditions
12:15 AM 1.4 °F -11.3 °F -4.0 °F 78% 30.27 in 4.0 mi NW 6.9 mph - N/A Snow Light Snow
12:35 AM 1.4 °F -9.9 °F -2.2 °F 85% 30.27 in 3.0 mi WNW 5.8 mph - 0.02 in Snow Light Snow
12:55 AM 1.4 °F -11.3 °F -2.2 °F 85% 30.27 in 5.0 mi WNW 6.9 mph - 0.03 in Snow Light Snow
1:15 AM 1.4 °F -11.3 °F -2.2 °F 85% 30.27 in 4.0 mi West 6.9 mph - N/A Snow Light Snow
1:35 AM 1.4 °F -11.3 °F -2.2 °F 85% 30.27 in 4.0 mi West 6.9 mph - 0.01 in Snow Light Snow
1:55 AM 1.4 °F -13.5 °F -2.2 °F 85% 30.27 in 5.0 mi West 9.2 mph - 0.02 in Snow Light Snow
2:15 AM 3.2 °F -11.3 °F -0.4 °F 85% 30.27 in 5.0 mi West 9.2 mph - N/A Snow Light Snow
2:35 AM 3.2 °F -13.1 °F -0.4 °F 85% 30.29 in 4.0 mi West 11.5 mph - 0.02 in Snow Light Snow
2:55 AM 3.2 °F -13.1 °F -0.4 °F 85% 30.29 in 5.0 mi West 11.5 mph - 0.03 in Snow Light Snow
3:15 AM 1.4 °F -13.5 °F -2.2 °F 85% 30.31 in 10.0 mi West 9.2 mph - N/A Snow Light Snow
3:35 AM 1.4 °F -14.5 °F -2.2 °F 85% 30.32 in 7.0 mi WNW 10.4 mph - N/A Snow Light Snow
3:55 AM 1.4 °F -16.9 °F -0.4 °F 92% 30.32 in 7.0 mi WNW 13.8 mph - 0.01 in Snow Light Snow
4:15 AM 3.2 °F -14.6 °F -0.4 °F 85% 30.33 in 5.0 mi WNW 13.8 mph - 0.01 in Snow Light Snow
4:35 AM 3.2 °F -18.1 °F -0.4 °F 85% 30.34 in 5.0 mi NW 20.7 mph 26.5 mph 0.02 in Snow Light Snow
4:55 AM 3.2 °F -18.1 °F -0.4 °F 85% 30.36 in 5.0 mi NW 20.7 mph 27.6 mph 0.03 in Snow Light Snow
5:15 AM 1.4 °F -22.7 °F -2.2 °F 85% 30.36 in 1.2 mi NW 26.5 mph 33.4 mph 0.01 in Snow Light Snow
5:35 AM 1.4 °F -22.7 °F -2.2 °F 85% 30.37 in 2.0 mi NW 26.5 mph 31.1 mph 0.02 in Rain Light Freezing Rain
5:55 AM -0.4 °F -22.3 °F -5.8 °F 78% 30.38 in 3.0 mi NNW 19.6 mph 29.9 mph 0.02 in   Haze
6:15 AM -2.2 °F -27.1 °F -7.6 °F 78% 30.41 in 2.5 mi NNW 25.3 mph 31.1 mph N/A Rain Light Freezing Rain
6:35 AM -4.0 °F -31.3 °F -9.4 °F 78% 30.41 in 1.8 mi NNW 29.9 mph 33.4 mph N/A   Haze
6:55 AM -5.8 °F -31.0 °F -11.2 °F 77% 30.43 in 1.5 mi NW 23.0 mph 34.5 mph N/A Rain Light Freezing Rain
7:15 AM -7.6 °F -33.4 °F -13.0 °F 77% 30.44 in 3.0 mi NNW 23.0 mph 31.1 mph N/A   Haze
7:35 AM -7.6 °F -32.9 °F -13.0 °F 77% 30.45 in 7.0 mi NNW 21.9 mph 29.9 mph N/A   Overcast
7:55 AM -9.4 °F -34.1 °F -14.8 °F 77% 30.46 in 5.0 mi NW 19.6 mph 31.1 mph N/A   Haze
8:15 AM -9.4 °F -35.2 °F -14.8 °F 77% 30.46 in 7.0 mi NW 21.9 mph 27.6 mph N/A   Overcast
8:35 AM -11.2 °F -38.2 °F -16.6 °F 77% 30.48 in 5.0 mi NW 23.0 mph 31.1 mph N/A   Haze
8:55 AM -11.2 °F -37.6 °F -16.6 °F 77% 30.49 in 5.0 mi NW 21.9 mph 27.6 mph N/A   Haze
9:15 AM -11.2 °F -37.6 °F -16.6 °F 77% 30.49 in 2.5 mi NW 21.9 mph 32.2 mph N/A   Haze
9:35 AM -11.2 °F -37.0 °F -18.4 °F 70% 30.50 in 6.0 mi NW 20.7 mph - N/A   Haze
9:55 AM -11.2 °F -35.8 °F -18.4 °F 70% 30.52 in 6.0 mi NW 18.4 mph - N/A   Haze
10:15 AM -11.2 °F -35.8 °F -18.4 °F 70% 30.51 in 9.0 mi NW 18.4 mph 26.5 mph N/A   Overcast
10:35 AM -11.2 °F -39.2 °F -18.4 °F 70% 30.52 in 10.0 mi NW 25.3 mph 28.8 mph N/A   Overcast
10:55 AM -11.2 °F -37.6 °F -18.4 °F 70% 30.53 in 10.0 mi NW 21.9 mph 29.9 mph N/A   Overcast
11:15 AM -11.2 °F -38.7 °F -18.4 °F 70% 30.52 in 10.0 mi NW 24.2 mph 29.9 mph N/A   Scattered Clouds
11:35 AM -11.2 °F -38.7 °F -18.4 °F 70% 30.53 in 10.0 mi NW 24.2 mph 28.8 mph N/A   Partly Cloudy
11:55 AM -11.2 °F -40.1 °F -20.2 °F 64% 30.53 in 10.0 mi NW 27.6 mph 33.4 mph N/A   Clear
12:15 PM -11.2 °F -38.7 °F -20.2 °F 64% 30.52 in 10.0 mi NW 24.2 mph 32.2 mph N/A   Clear
12:35 PM -11.2 °F -38.2 °F -20.2 °F 64% 30.50 in 10.0 mi NW 23.0 mph 32.2 mph N/A   Clear
12:55 PM -11.2 °F -37.0 °F -20.2 °F 64% 30.50 in 10.0 mi NW 20.7 mph 25.3 mph N/A   Clear
1:15 PM -9.4 °F -37.3 °F -18.4 °F 65% 30.49 in 10.0 mi NW 26.5 mph 32.2 mph N/A   Clear
1:35 PM -9.4 °F -36.8 °F -20.2 °F 59% 30.48 in 10.0 mi NW 25.3 mph 32.2 mph N/A   Clear
1:55 PM -9.4 °F -34.7 °F -20.2 °F 59% 30.47 in 10.0 mi NW 20.7 mph 28.8 mph N/A   Clear
2:15 PM -9.4 °F -34.1 °F -18.4 °F 65% 30.47 in 10.0 mi NW 19.6 mph - N/A   Clear
2:35 PM -9.4 °F -37.7 °F -18.4 °F 65% 30.45 in 10.0 mi NW 27.6 mph 33.4 mph N/A   Clear
2:55 PM -7.6 °F -34.4 °F -18.4 °F 59% 30.45 in 10.0 mi NW 25.3 mph 31.1 mph N/A   Clear
3:15 PM -7.6 °F -34.8 °F -18.4 °F 59% 30.45 in 4.0 mi NW 26.5 mph 36.8 mph N/A   Haze
3:35 PM -7.6 °F -34.8 °F -16.6 °F 65% 30.45 in 5.0 mi NW 26.5 mph 36.8 mph N/A   Haze
3:55 PM -7.6 °F -36.1 °F -16.6 °F 65% 30.44 in 9.0 mi NW 29.9 mph 35.7 mph N/A   Clear
4:15 PM -7.6 °F -34.8 °F -18.4 °F 59% 30.43 in 10.0 mi NW 26.5 mph 35.7 mph N/A   Clear
4:35 PM -9.4 °F -37.7 °F -16.6 °F 71% 30.43 in 10.0 mi NW 27.6 mph 33.4 mph N/A   Clear
4:55 PM -9.4 °F -37.3 °F -18.4 °F 65% 30.43 in 10.0 mi NW 26.5 mph 32.2 mph N/A   Clear
5:15 PM -9.4 °F -35.2 °F -18.4 °F 65% 30.43 in 10.0 mi NW 21.9 mph 26.5 mph N/A   Clear
5:35 PM -9.4 °F -32.8 °F -18.4 °F 65% 30.43 in 10.0 mi NW 17.3 mph - N/A   Clear
5:55 PM -11.2 °F -32.9 °F -18.4 °F 70% 30.44 in 10.0 mi WNW 13.8 mph - N/A   Clear
6:15 PM -11.2 °F -31.1 °F -18.4 °F 70% 30.43 in 10.0 mi NW 11.5 mph - N/A   Clear
6:35 PM -13.0 °F -33.4 °F -20.2 °F 70% 30.44 in 10.0 mi NW 11.5 mph - N/A   Clear
7:15 PM -13.0 °F -28.6 °F -20.2 °F 70% 30.45 in 10.0 mi WNW 6.9 mph - N/A   Overcast
7:35 PM -13.0 °F -34.3 °F -20.2 °F 70% 30.44 in 10.0 mi NW 12.7 mph - N/A   Overcast
7:55 PM -16.6 °F -29.3 °F -22.0 °F 76% 30.44 in 10.0 mi West 4.6 mph - N/A   Mostly Cloudy
8:15 PM -16.6 °F -36.8 °F -22.0 °F 76% 30.44 in - WNW 10.4 mph - N/A   Clear
8:35 PM -16.6 °F -35.7 °F -22.0 °F 76% 30.44 in - West 9.2 mph - N/A   Clear
8:55 PM -14.8 °F -34.6 °F -22.0 °F 70% 30.43 in 10.0 mi West 10.4 mph - N/A   Clear
9:15 PM -14.8 °F -35.6 °F -22.0 °F 70% 30.43 in 10.0 mi WNW 11.5 mph - N/A   Clear
9:35 PM -14.8 °F -36.6 °F -22.0 °F 70% 30.43 in 10.0 mi West 12.7 mph - N/A   Clear
9:55 PM -14.8 °F -37.5 °F -22.0 °F 70% 30.43 in 10.0 mi WNW 13.8 mph - N/A   Clear
10:15 PM -14.8 °F -37.5 °F -22.0 °F 70% 30.43 in 10.0 mi West 13.8 mph - N/A   Clear
10:35 PM -13.0 °F -36.0 °F -22.0 °F 64% 30.42 in 10.0 mi WNW 15.0 mph - N/A   Clear
10:55 PM -14.8 °F -37.5 °F -22.0 °F 70% 30.41 in 10.0 mi WNW 13.8 mph - N/A   Clear
11:15 PM -14.8 °F -36.6 °F -22.0 °F 70% 30.41 in 10.0 mi West 12.7 mph - N/A   Clear
11:35 PM -14.8 °F -36.6 °F -22.0 °F 70% 30.41 in 10.0 mi West 12.7 mph - N/A   Clear
11:55 PM -14.8 °F -37.5 °F -22.0 °F 70% 30.41 in 10.0 mi West 13.8 mph - N/A   Clear